Location: Erdweis
(48.5167°N, 15.3500°E)
Time: 05:48:15
(UTC+00:00)

IGS 5A - Pass Details

Date: 18 September 2020
Orbit: 583 x 588 km, 97.6° (Epoch: 09 October)

Event Time Altitude Azimuth Distance (km) Brightness Sun altitude
Exits shadow 19:37:08 41° 23° (NNE) 864 4.3 -24.6°
Drops below altitude 10° 19:40:06 10° 355° (N) 1,918 6.5 -25.0°
Sets 19:42:18 0° 351° (N) 2,823 7.6 -25.3°
